Paso Robles, CA

2:37 AM PST on February 23, 2017 (GMT -0800)
Paso Robles Municipal

Weather History for KPRB - January, 2012

Change the Weather History Date:

Tuesday, January 31, 2012

  Actual Average Record
Temperature  
Mean Temperature 55 °F 48 °F  
Max Temperature 64 °F 60 °F 83 °F (1976)
Min Temperature 45 °F 36 °F 22 °F (1985)
Degree Days  
Heating Degree Days 10 17  
Month to date heating degree days 518 552  
Since 1 July heating degree days 1627 1676  
Cooling Degree Days 0 0  
Month to date cooling degree days 0 0  
Year to date cooling degree days 0 0  
Growing Degree Days 4 (Base 50)    
Moisture  
Dew Point 45 °F    
Average Humidity 76    
Maximum Humidity 100    
Minimum Humidity 52    
Precipitation  
Precipitation 0.00 in 0.09 in 1.84 in (1963)
Month to date precipitation 1.49 2.75  
Year to date precipitation 1.49 2.75  
Since 1 July precipitation 4.30  
Sea Level Pressure  
Sea Level Pressure 30.09 in    
Wind  
Wind Speed 8 mph (NNW)    
Max Wind Speed 15 mph    
Max Gust Speed 31 mph    
Visibility 5 miles    
Events Fog    
T = Trace of Precipitation, MM = Missing Value Source: NWS Daily Summary

Daily Weather History Graph

Daily Weather History Graph

Search for Another Location

Airport or City:

Trip Planner

Search our weather history database for the weather conditions in past years. The results will help you decide how hot, cold, wet, or windy it might be!

Date:

Astronomy

Jan. 31, 2012 Rise Set
Actual Time 7:03 AM PST 5:28 PM PST
Civil Twilight 6:36 AM PST 5:55 PM PST
Nautical Twilight 6:06 AM PST 6:26 PM PST
Astronomical Twilight 5:36 AM PST 6:56 PM PST
Moon 11:23 AM PST (1/31) 12:55 AM PST (1/31)
Length of Visible Light 11h 18m
Length of Day
10h 25m
First Quarter, 56% of the Moon is Illuminated
Jan 31
First Quarter
Feb 7
Full
Feb 14
Last Quarter
Feb 21
New
Feb 29
First Quarter

Hourly Weather History & Observations

Time (PST) Temp. Windchill Dew Point Humidity Pressure Visibility Wind Dir Wind Speed Gust Speed Precip Events Conditions
12:19 AM 48.2 °F - 44.6 °F 87% 30.03 in 10.0 mi NW 10.4 mph - N/A   Scattered Clouds
12:27 AM 48.2 °F - 46.4 °F 93% 30.03 in 3.0 mi NW 10.4 mph - N/A   Mostly Cloudy
12:31 AM 48.2 °F - 46.4 °F 93% 30.03 in 1.8 mi NW 9.2 mph - N/A   Mostly Cloudy
12:53 AM 48.0 °F - 46.9 °F 96% 30.03 in 1.0 mi NW 11.5 mph - N/A   Mist
1:02 AM 48.2 °F - 46.4 °F 93% 30.03 in 0.5 mi NW 13.8 mph - N/A Fog Fog
1:10 AM 46.4 °F 40.7 °F 46.4 °F 100% 30.03 in 0.2 mi NW 12.7 mph - N/A Fog Fog
1:23 AM 46.4 °F 41.1 °F 46.4 °F 100% 30.03 in 0.5 mi NW 11.5 mph - N/A Fog Fog
1:43 AM 46.4 °F 41.1 °F 46.4 °F 100% 30.04 in 0.5 mi NW 11.5 mph - N/A Fog Fog
1:46 AM 46.4 °F 41.5 °F 46.4 °F 100% 30.04 in 0.2 mi NW 10.4 mph - N/A Fog Fog
1:53 AM 46.9 °F - 46.0 °F 97% 30.03 in 0.2 mi NNW 10.4 mph - N/A Fog Fog
2:12 AM 46.4 °F 41.1 °F 46.4 °F 100% 30.04 in 0.5 mi NNW 11.5 mph - N/A Fog Fog
2:24 AM 46.4 °F 41.9 °F 46.4 °F 100% 30.04 in 0.5 mi NNW 9.2 mph - N/A Fog Fog
2:53 AM 46.9 °F - 45.0 °F 93% 30.04 in 0.5 mi NW 10.4 mph - N/A Fog Fog
3:53 AM 46.0 °F 40.2 °F 45.0 °F 96% 30.05 in 1.2 mi NNW 12.7 mph - N/A   Overcast
4:30 AM 46.4 °F 41.1 °F 46.4 °F 100% 30.06 in 2.5 mi NW 11.5 mph - N/A   Overcast
4:38 AM 46.4 °F 41.9 °F 44.6 °F 93% 30.07 in 3.0 mi NNW 9.2 mph - N/A   Overcast
4:53 AM 46.9 °F - 45.0 °F 93% 30.07 in 4.0 mi NNW 12.7 mph - N/A   Overcast
5:49 AM 44.6 °F 40.7 °F 42.8 °F 93% 30.09 in 2.0 mi East 6.9 mph - N/A   Overcast
5:53 AM 45.0 °F 40.6 °F 43.0 °F 93% 30.10 in 2.0 mi East 8.1 mph - N/A   Overcast
6:03 AM 44.6 °F 42.2 °F 42.8 °F 93% 30.10 in 4.0 mi ENE 4.6 mph - N/A   Overcast
6:53 AM 45.0 °F 41.8 °F 43.0 °F 93% 30.11 in 8.0 mi East 5.8 mph - N/A   Overcast
7:53 AM 45.0 °F 41.8 °F 43.0 °F 93% 30.13 in 7.0 mi ENE 5.8 mph - N/A   Overcast
8:53 AM 46.9 °F - 44.1 °F 90% 30.14 in 8.0 mi ENE 8.1 mph 31.1 mph N/A   Overcast
9:53 AM 48.0 °F - 44.1 °F 86% 30.12 in 8.0 mi NE 3.5 mph - N/A   Overcast
10:16 AM 48.2 °F - 44.6 °F 87% 30.12 in 9.0 mi Calm Calm - N/A   Scattered Clouds
10:53 AM 53.1 °F - 45.0 °F 74% 30.12 in 10.0 mi Calm Calm - N/A   Clear
11:53 AM 59.0 °F - 45.0 °F 60% 30.10 in 10.0 mi NNW 6.9 mph - N/A   Clear
12:53 PM 60.1 °F - 45.0 °F 57% 30.06 in 10.0 mi NNW 6.9 mph - N/A   Clear
1:53 PM 63.0 °F - 44.1 °F 50% 30.08 in 10.0 mi WNW 8.1 mph - N/A   Clear
2:53 PM 63.0 °F - 46.0 °F 54% 30.09 in 10.0 mi NW 12.7 mph - N/A   Clear
3:53 PM 62.1 °F - 45.0 °F 53% 30.08 in 10.0 mi NNW 5.8 mph - N/A   Clear
4:53 PM 61.0 °F - 46.9 °F 60% 30.10 in 10.0 mi North 3.5 mph - N/A   Clear
5:53 PM 57.0 °F - 46.9 °F 69% 30.12 in 10.0 mi East 4.6 mph - N/A   Clear
6:53 PM 55.0 °F - 46.0 °F 72% 30.14 in 10.0 mi SE 6.9 mph - N/A   Clear
7:53 PM 55.0 °F - 45.0 °F 69% 30.15 in 10.0 mi East 10.4 mph - N/A   Clear
8:53 PM 53.1 °F - 46.0 °F 77% 30.17 in 7.0 mi ESE 5.8 mph - N/A   Clear
9:53 PM 51.1 °F - 45.0 °F 80% 30.17 in 6.0 mi NW 3.5 mph - N/A   Haze
10:53 PM 50.0 °F - 45.0 °F 83% 30.18 in 7.0 mi NW 6.9 mph - N/A   Clear
11:53 PM 48.0 °F - 45.0 °F 89% 30.18 in 10.0 mi NW 10.4 mph - N/A   Clear